030  
NZUS59 KLOT 181309  
HRRLOT  
 
CHICAGO AREA WEATHER ROUNDUP  
NATIONAL WEATHER SERVICE CHICAGO/ROMEOVILLE IL  
800 AM CDT WED SEP 18 2019  
 
NOTE: "FAIR" INDICATES FEW OR NO CLOUDS BELOW 12,000 FEET WITH NO  
SIGNIFICANT WEATHER AND/OR OBSTRUCTIONS TO VISIBILITY.  
 
* THESE STATIONS ARE NOT UNDER NWS QUALITY CONTROL. THEY ALSO MAY NOT  
REPORT WEATHER SUCH AS PRECIPITATION OR FOG.  
 
ILZ005-006-012>014-019>023-181400-  
NORTHEAST ILLINOIS  
 
CITY SKY/WX TMP DP RH WIND PRES REMARKS  
OHARE N/A 65 60 84 SE9 30.11R  
MIDWAY N/A 66 60 81 S8 30.11R  
AURORA N/A 63 60 90 SE7 30.10S FOG  
LANSING* N/A 64 62 92 CALM 30.13R  
JOLIET* N/A 64 64 100 SE5 30.12R  
WAUKEGAN N/A 65 60 84 S6 30.11R  
DUPAGE AIRPORT N/A 66 60 81 SE7 30.10S  
WHEELING N/A 66 60 81 SE6 30.13R  
KANKAKEE* N/A 63 61 94 SE6 30.13R  
MORRIS* N/A 63 62 99 CALM 30.10S FOG  
LEWIS AIRPORT* N/A 63 61 93 SE6 30.12R  
NORTHERLY ISL N/A 66 61 84 SE6 N/A  
NORTHERLY IS NOT AVBL  
NORTHERLY ISL N/A 66 61 84 SE6 N/A  

 
 
WIZ051-052-058>065-066-070>072-181400-  
SOUTHEAST WISCONSIN  
 
CITY SKY/WX TMP DP RH WIND PRES REMARKS  
MILWAUKEE N/A 65 62 90 S6 30.11R  
KENOSHA* N/A 67 63 87 S7 30.12R  
RACINE* N/A 66 62 87 S7 30.14R  
WAUKESHA SUNNY 63 57 82 SE5 30.13R FOG  

 
 
INZ001>003-010>013-019-020-181400-  
NORTHWEST INDIANA  
 
CITY SKY/WX TMP DP RH WIND PRES REMARKS  
GARY* SUNNY 64 61 88 SE7 30.13R  
MICHIGAN CITY* NOT AVBL  
RENSSELAER* NOT AVBL  
VALPARAISO N/A 62 58 86 E5 30.14R  

 
 
LMZ740>746-181400-  
SOUTHERN LAKE MICHIGAN  
 
STATION/POSITION TIME SKY/WX TEMP WIND PRES VSBY  
AIR DIR/SP/G  
(UTC) (F) (DEG/KT/KT) (MB) (MI)  
HARRISON CRIB 1250 66 170/ 10/ 13 N/A  
NORTHERLY ISL 1300 66 140/ 5/ 8 N/A  
CALUMET HARBOR 1230 64 170/ 4/ 8 1019.2R  
BURNS HARBOR 1240 65 140/ 6/ 8 1020.3S  
MICHIGAN CITY 1240 64 140/ 7/ 9 N/A  

 
 
ABBREVIATIONS USED IN REMARKS  
TC - TEMPERATURE IN CELSIUS  
WCI - WIND CHILL INDEX  
HX - HEAT INDEX  
VSB - VISIBILITY  

 
 
 
CLICK HERE TO GO TO PREVIOUS BULLETINS.

The Nexlab IL Page
The Nexlab IN Page Main Text Page